Location: Unspecified
(0.0000°N, 0.0000°E)
Time: 17:41:17
(UTC+00:00)

Vanguard 1 Rocket - Pass Details

Date: 09 December 2017
Orbit: 652 x 4225 km, 34.3° (Epoch: 18 July)

Event Time Altitude Azimuth Distance (km) Brightness Sun altitude
Rises 15:10:35 0° 250° (WSW) 3,302 11.2 36.7°
Reaches altitude 10° 15:12:40 10° 257° (WSW) 2,563 10.9 36.3°
Maximum altitude 15:18:25 47° 331° (NNW) 1,604 9.1 35.0°
Drops below altitude 10° 15:28:47 10° 41° (NE) 4,539 10.6 32.7°
Sets 15:33:52 0° 46° (NE) 6,161 11.1 31.6°
